This is the latest recevied weather packets stored in our database for station/object KB9PMA-1. If no packets are shown the sender has not sent any weather packets the latest 10 day(s).
| Time | Temp. | Humidity | Pressure | Rain* | Wind** | Luminosity | Snow |
|---|---|---|---|---|---|---|---|
| 1778170071 | 12.78° C | 49% | 1016.9 hPa | 0 mm | - | - | - |
| 1778169771 | 12.22° C | 51% | 1016.9 hPa | 0 mm | - | - | - |
| 1778169471 | 12.22° C | 53% | 1017.1 hPa | 0 mm | - | - | - |
| 1778169171 | 12.22° C | 54% | 1017 hPa | 0 mm | - | - | - |
| 1778168871 | 12.22° C | 51% | 1017 hPa | 0 mm | - | - | - |
| 1778168571 | 12.22° C | 51% | 1017 hPa | 0 mm | - | - | - |
| 1778168271 | 12.22° C | 50% | 1017 hPa | 0 mm | - | - | - |
| 1778167971 | 11.67° C | 53% | 1016.9 hPa | 0 mm | - | - | - |
| 1778167671 | 11.67° C | 50% | 1016.8 hPa | 0 mm | - | - | - |
| 1778167371 | 11.67° C | 51% | 1016.7 hPa | 0 mm | - | - | - |
| 1778167071 | 11.67° C | 52% | 1016.7 hPa | 0 mm | - | - | - |
| 1778166771 | 11.67° C | 56% | 1016.8 hPa | 0 mm | - | - | - |
| 1778166471 | 11.67° C | 54% | 1016.8 hPa | 0 mm | - | - | - |
| 1778166171 | 11.67° C | 50% | 1016.8 hPa | 0 mm | - | - | - |
| 1778165871 | 11.67° C | 55% | 1016.8 hPa | 0 mm | - | - | - |
| 1778165571 | 11.11° C | 54% | 1016.8 hPa | 0 mm | - | - | - |
| 1778165271 | 11.11° C | 56% | 1016.8 hPa | 0 mm | - | - | - |
| 1778164971 | 11.11° C | 55% | 1016.8 hPa | 0 mm | - | - | - |
| 1778164671 | 11.11° C | 55% | 1016.8 hPa | 0 mm | - | - | - |
| 1778164371 | 10.56° C | 54% | 1016.8 hPa | 0 mm | - | - | - |
| 1778164071 | 10.56° C | 57% | 1016.8 hPa | 0 mm | - | - | - |
| 1778163771 | 10.56° C | 55% | 1016.9 hPa | 0 mm | - | - | - |
| 1778163471 | 10° C | 60% | 1016.9 hPa | 0 mm | - | - | - |
| 1778163171 | 10° C | 60% | 1016.9 hPa | 0 mm | - | - | - |
| 1778162871 | 10° C | 61% | 1017 hPa | 0 mm | - | - | - |
* Rain latest hour (hover to see other rain measurements)
** Current wind speed in m/s (hover to see current wind gust speed)